TimeEST,TemperatureF,Dew PointF,Humidity,Sea Level PressureIn,VisibilityMPH,Wind Direction,Wind SpeedMPH,Gust SpeedMPH,PrecipitationIn,Events,Conditions,WindDirDegrees,DateUTC
12:54 AM,35.1,25.0,67,30.19,10.0,SW,18.4,24.2,0.00,Snow,Light Snow,220,2011-12-09 05:54:00
1:52 AM,35.6,24.8,65,30.17,10.0,SSW,15.0,-,0.00,,Mostly Cloudy,210,2011-12-09 06:52:00
1:54 AM,35.1,25.0,67,30.19,10.0,SSW,13.8,-,0.00,,Mostly Cloudy,210,2011-12-09 06:54:00
2:28 AM,33.8,24.8,70,30.17,10.0,SSW,13.8,-,N/A,,Overcast,210,2011-12-09 07:28:00
2:54 AM,35.6,24.8,65,30.17,10.0,SSW,16.1,-,N/A,,Overcast,200,2011-12-09 07:54:00
3:17 AM,35.6,24.8,65,30.17,10.0,SSW,11.5,-,N/A,,Overcast,200,2011-12-09 08:17:00
3:51 AM,33.8,24.8,70,30.16,7.0,SSW,16.1,-,0.00,Snow,Light Snow,210,2011-12-09 08:51:00
3:54 AM,34.0,26.1,73,30.18,6.0,SSW,13.8,-,0.00,Snow,Light Snow,210,2011-12-09 08:54:00
4:38 AM,33.8,26.6,75,30.15,10.0,SSW,13.8,-,0.00,Snow,Light Snow,200,2011-12-09 09:38:00
4:54 AM,34.0,26.1,73,30.17,10.0,SSW,13.8,-,0.00,Snow,Light Snow,200,2011-12-09 09:54:00
5:21 AM,33.8,26.6,75,30.15,5.0,SSW,13.8,-,0.00,Snow,Light Snow,200,2011-12-09 10:21:00
5:34 AM,33.8,26.6,75,30.15,1.8,SSW,15.0,-,0.00,Snow,Light Snow,210,2011-12-09 10:34:00
5:54 AM,33.1,28.0,82,30.18,1.8,SSW,13.8,-,0.00,Snow,Light Snow,200,2011-12-09 10:54:00
6:14 AM,33.8,28.4,81,30.15,1.2,SSW,11.5,-,0.01,Snow,Light Snow,200,2011-12-09 11:14:00
6:54 AM,32.0,28.9,88,30.19,1.2,SSW,11.5,-,0.02,Snow,Light Snow,200,2011-12-09 11:54:00
7:25 AM,32.0,30.2,93,30.16,0.8,SSW,9.2,-,0.01,Snow,Light Snow,200,2011-12-09 12:25:00
7:42 AM,32.0,30.2,93,30.16,0.5,SSW,9.2,-,0.02,Fog-Snow,Snow,210,2011-12-09 12:42:00
7:50 AM,32.0,30.2,93,30.16,0.2,SSW,9.2,-,0.03,Fog-Snow,Heavy Snow,200,2011-12-09 12:50:00
7:54 AM,32.0,30.2,93,30.16,0.2,SSW,9.2,-,N/A,Fog-Snow,Heavy Snow,200,2011-12-09 12:54:00
8:47 AM,32.0,30.2,93,30.16,1.0,South,12.7,-,0.04,Snow,Light Snow,190,2011-12-09 13:47:00
8:54 AM,33.1,30.0,89,30.19,1.8,South,11.5,-,0.04,Snow,Light Snow,190,2011-12-09 13:54:00
9:17 AM,33.8,30.2,87,30.16,1.5,SSW,9.2,-,0.00,Snow,Light Snow,200,2011-12-09 14:17:00
9:30 AM,33.8,30.2,87,30.16,1.0,SSW,9.2,-,0.00,Snow,Light Snow,200,2011-12-09 14:30:00
9:48 AM,33.8,30.2,87,30.16,2.0,SSW,10.4,-,0.00,Snow,Light Snow,200,2011-12-09 14:48:00
9:54 AM,33.1,30.0,89,30.19,1.8,SSW,9.2,-,0.00,Snow,Light Snow,210,2011-12-09 14:54:00
10:05 AM,33.8,30.2,87,30.16,3.0,SSW,8.1,-,0.00,Snow,Light Snow,200,2011-12-09 15:05:00
10:54 AM,36.0,28.9,76,30.17,10.0,SSW,12.7,-,0.00,,Mostly Cloudy,210,2011-12-09 15:54:00
11:20 AM,37.4,28.4,70,30.13,10.0,SW,15.0,23.0,N/A,,Mostly Cloudy,220,2011-12-09 16:20:00
11:54 AM,37.0,28.9,73,30.14,10.0,SW,16.1,23.0,N/A,,Overcast,220,2011-12-09 16:54:00
12:54 PM,37.9,28.0,68,30.12,10.0,SW,17.3,24.2,N/A,,Overcast,230,2011-12-09 17:54:00
1:19 PM,37.4,28.4,70,30.10,8.0,SW,16.1,24.2,0.00,Snow,Light Snow,230,2011-12-09 18:19:00
1:54 PM,37.4,30.2,75,30.09,7.0,WSW,17.3,23.0,N/A,Snow,Light Snow,240,2011-12-09 18:54:00
2:54 PM,37.0,30.9,79,30.11,7.0,WSW,17.3,27.6,0.01,Rain-Snow,Light Snow,250,2011-12-09 19:54:00
3:10 PM,33.8,30.2,87,30.10,1.5,WNW,10.4,-,0.01,Snow,Light Snow,290,2011-12-09 20:10:00
3:21 PM,33.8,30.2,87,30.11,0.8,WNW,9.2,-,0.02,Snow,Light Snow,290,2011-12-09 20:21:00
3:44 PM,33.8,30.2,87,30.11,1.0,West,9.2,-,0.03,Snow,Light Snow,270,2011-12-09 20:44:00
3:54 PM,33.1,30.9,92,30.14,1.0,West,9.2,-,0.03,Snow,Light Snow,260,2011-12-09 20:54:00
4:43 PM,33.8,30.2,87,30.13,2.0,West,11.5,-,0.01,Snow,Light Snow,270,2011-12-09 21:43:00
4:54 PM,33.8,30.2,87,30.13,2.5,West,9.2,-,N/A,Snow,Light Snow,270,2011-12-09 21:54:00
5:15 PM,33.8,30.2,87,30.14,3.0,West,9.2,-,0.00,Snow,Light Snow,260,2011-12-09 22:15:00
5:54 PM,33.1,30.0,89,30.17,2.0,West,11.5,-,0.00,Snow,Light Snow,270,2011-12-09 22:54:00
6:29 PM,33.8,30.2,87,30.16,3.0,WSW,10.4,-,0.00,Snow,Light Snow,250,2011-12-09 23:29:00
6:54 PM,33.1,30.0,89,30.19,3.0,West,8.1,-,0.00,Snow,Light Snow,270,2011-12-09 23:54:00
7:54 PM,33.1,30.0,89,30.21,3.0,West,5.8,-,0.00,Snow,Light Snow,280,2011-12-10 00:54:00
8:09 PM,33.8,30.2,87,30.19,2.0,WNW,10.4,16.1,0.00,Snow,Light Snow,290,2011-12-10 01:09:00
8:35 PM,30.2,26.6,86,30.20,4.0,WNW,12.7,-,0.00,Snow,Light Snow,290,2011-12-10 01:35:00
8:54 PM,30.9,27.0,85,30.23,3.0,West,10.4,-,0.00,Snow,Light Snow,280,2011-12-10 01:54:00
9:50 PM,30.2,26.6,86,30.23,1.5,WNW,10.4,-,0.01,Snow,Light Snow,300,2011-12-10 02:50:00
9:54 PM,30.0,26.1,85,30.26,1.5,WNW,10.4,-,0.01,Snow,Light Snow,290,2011-12-10 02:54:00
10:32 PM,28.4,26.6,93,30.24,1.2,West,9.2,-,0.02,Snow,Light Snow,270,2011-12-10 03:32:00
10:54 PM,28.0,25.0,88,30.28,1.5,WNW,11.5,-,0.02,Snow,Light Snow,300,2011-12-10 03:54:00
10:56 PM,28.4,24.8,86,30.25,3.0,WNW,11.5,-,0.00,Snow,Light Snow,290,2011-12-10 03:56:00
11:35 PM,28.4,19.4,69,30.26,8.0,WNW,10.4,-,0.01,,Overcast,300,2011-12-10 04:35:00
11:54 PM,28.0,19.0,69,30.29,9.0,WNW,8.1,-,0.01,,Overcast,290,2011-12-10 04:54:00